TimeCDT,TemperatureF,Dew PointF,Humidity,Sea Level PressureIn,VisibilityMPH,Wind Direction,Wind SpeedMPH,Gust SpeedMPH,PrecipitationIn,Events,Conditions,WindDirDegrees,DateUTC
12:53 AM,30.0,19.9,66,30.37,10.0,Calm,Calm,-,N/A,,Clear,0,2013-03-28 05:53:00
1:53 AM,28.9,19.9,69,30.37,10.0,Calm,Calm,-,N/A,,Clear,0,2013-03-28 06:53:00
2:53 AM,27.0,21.0,78,30.37,10.0,Calm,Calm,-,N/A,,Clear,0,2013-03-28 07:53:00
3:53 AM,28.0,21.0,75,30.35,9.0,Calm,Calm,-,N/A,,Clear,0,2013-03-28 08:53:00
4:53 AM,26.1,21.0,81,30.36,9.0,Calm,Calm,-,N/A,,Clear,0,2013-03-28 09:53:00
5:53 AM,26.1,19.9,78,30.36,10.0,Calm,Calm,-,N/A,,Clear,0,2013-03-28 10:53:00
6:53 AM,27.0,19.9,75,30.36,8.0,ESE,3.5,-,N/A,,Partly Cloudy,110,2013-03-28 11:53:00
7:53 AM,28.0,21.9,78,30.37,10.0,Calm,Calm,-,N/A,,Partly Cloudy,0,2013-03-28 12:53:00
8:53 AM,30.0,21.0,69,30.38,7.0,SSE,3.5,-,N/A,,Partly Cloudy,150,2013-03-28 13:53:00
9:53 AM,33.1,21.9,64,30.38,8.0,Calm,Calm,-,N/A,,Scattered Clouds,0,2013-03-28 14:53:00
10:53 AM,37.9,23.0,55,30.37,10.0,Variable,5.8,-,N/A,,Scattered Clouds,0,2013-03-28 15:53:00
11:53 AM,39.9,19.9,45,30.37,10.0,ESE,4.6,-,N/A,,Scattered Clouds,120,2013-03-28 16:53:00
12:53 PM,39.9,19.0,43,30.37,10.0,SE,6.9,-,N/A,,Scattered Clouds,130,2013-03-28 17:53:00
1:53 PM,41.0,19.0,41,30.35,10.0,SE,5.8,-,N/A,,Scattered Clouds,140,2013-03-28 18:53:00
2:53 PM,42.1,21.9,45,30.33,10.0,SE,8.1,-,N/A,,Partly Cloudy,130,2013-03-28 19:53:00
3:53 PM,43.0,23.0,45,30.32,10.0,SSE,9.2,-,N/A,,Scattered Clouds,160,2013-03-28 20:53:00
4:53 PM,43.0,25.0,49,30.31,10.0,South,6.9,-,N/A,,Partly Cloudy,170,2013-03-28 21:53:00
5:53 PM,43.0,25.0,49,30.31,10.0,Variable,5.8,-,N/A,,Clear,0,2013-03-28 22:53:00
6:53 PM,41.0,27.0,57,30.31,10.0,SE,5.8,-,N/A,,Partly Cloudy,140,2013-03-28 23:53:00
7:53 PM,39.9,26.1,58,30.32,10.0,SSE,5.8,-,N/A,,Partly Cloudy,150,2013-03-29 00:53:00
8:53 PM,37.0,27.0,67,30.32,10.0,SE,5.8,-,N/A,,Clear,140,2013-03-29 01:53:00
9:53 PM,37.0,26.1,65,30.32,10.0,SE,4.6,-,N/A,,Partly Cloudy,130,2013-03-29 02:53:00
10:53 PM,36.0,26.1,67,30.32,10.0,SE,3.5,-,N/A,,Partly Cloudy,140,2013-03-29 03:53:00
11:53 PM,35.1,26.1,70,30.31,10.0,East,3.5,-,N/A,,Clear,100,2013-03-29 04:53:00